Notices

What's New in latest Release from April 7th, 2021:

- Updated Glossary, including Speed of Maximum Gust, and Total Hourly Precipitation

- Updated national and regional climate services offices contacts and prices information

- Addition of station inventory lists for 1981-2010, 1971-2000, and 1961-1990 Normals.

If you haven't already, please take our survey and provide feedback about our website: https://eccc.sondage-survey.ca/f/LanguageSelection.aspx?s=442ca660-fcf1-47c0-95a9-59707d6fd709

Hourly Data Report for April 09, 2021

NANAIMO A
BRITISH COLUMBIA
Current Station Operator: NAVCAN

49°03'16.000" N
123°52'12.000" W
28.00 m
1025365
YCD

Download Data

Hourly Data (April 2021)
Hourly Data Report for April 9, 2021
TIME
LST
Temp Definition
°C
Dew Point Definition
°C
Rel Hum Definition
%
Precip. Amount Definition
mm

Wind Dir Definition
10's deg

Wind Spd Definition
km/h
Visibility Definition
km
Stn Press Definition
kPa
Hmdx Definition


Wind Chill Definition


Weather Definition


00:00 4.7 -3.2 57 LegendMM 26 5 LegendMM 102.09     LegendNANA
01:00 2.9 -2.2 69 LegendMM 24 6 LegendMM 102.05     LegendNANA
02:00 3.2 -1.9 70 LegendMM 22 2 LegendMM 101.98     LegendNANA
03:00 3.0 -1.4 73 LegendMM 26 2 LegendMM 101.94     LegendNANA
04:00 2.8 -1.3 75 LegendMM 24 5 LegendMM 101.89     LegendNANA
05:00 3.1 -0.9 75 LegendMM 25 2 LegendMM 101.85     LegendNANA
06:00 2.8 -0.6 79 LegendMM 7 2 LegendMM 101.77     LegendNANA
07:00 3.2 0.2 81 LegendMM 8 5 LegendMM 101.72     LegendNANA
08:00 4.8 0.8 75 LegendMM 9 4 LegendMM 101.70     LegendNANA
09:00 6.0 1.0 71 LegendMM 15 21 LegendMM 101.64     LegendNANA
10:00 7.1 1.4 67 LegendMM 14 20 LegendMM 101.58     LegendNANA
11:00 8.7 1.8 62 LegendMM 14 20 LegendMM 101.50     LegendNANA
12:00 8.2 1.3 62 LegendMM 15 15 LegendMM 101.48     LegendNANA
13:00 7.0 3.0 76 LegendMM 13 26 LegendMM 101.44     LegendNANA
14:00 6.0 3.5 84 LegendMM 13 23 LegendMM 101.38     LegendNANA
15:00 5.8 4.1 89 LegendMM 14 25 LegendMM 101.26     LegendNANA
16:00 5.3 4.2 92 LegendMM 14 25 LegendMM 101.17     LegendNANA
17:00 4.8 3.8 94 LegendMM 14 23 LegendMM 101.11     LegendNANA
18:00 4.4 3.6 95 LegendMM 15 26 LegendMM 101.03     LegendNANA
19:00 4.0 2.7 91 LegendMM 16 18 LegendMM 100.93     LegendNANA
20:00 3.8 3.3 96 LegendMM 24 5 LegendMM 100.96     LegendNANA
21:00 3.0 2.9 99 LegendMM 19 12 LegendMM 100.90     LegendNANA
22:00 1.4 0.0 90 LegendMM 36 13 LegendMM 100.98     LegendNANA
23:00 1.9 1.6 98 LegendMM 27 10 LegendMM 101.01     LegendNANA

Notes on Data Quality.

Legend

  • E = Estimated
  • M = Missing
  • NA = Not Available*
  • [empty] = Indicates an unobserved value
Date modified: